Location: MAC-Johnson Site
(33.6264°N, 81.2093°W)
Time: 20:52:51
(UTC-04:00)

BlueWalker 3 - Pass Details

Date: 15 September 2024
Orbit: 472 x 485 km, 53.2° (Epoch: 10 October)

Event Time Altitude Azimuth Distance (km) Brightness Sun altitude
Rises 19:52:53 0° 324° (NW) 2,542 6.2 -5.5°
Reaches altitude 10° 19:55:13 10° 335° (NNW) 1,663 5.1 -6.0°
Maximum altitude 19:58:37 32° 40° (NE) 855 2.8 -6.7°
Drops below altitude 10° 20:02:01 10° 104° (ESE) 1,665 3.9 -7.4°
Enters shadow 20:02:11 - 106° (ESE) 1,723 4.0 -7.4°
